Regional Weather Roundup
Issued by NWS

Home | Current Version | Previous Version | Text Only | Print | Product List | Glossary Off
Versions: 1 2 3 4 5 6 7 8 9 10 11 12 13 14 15 16 17 18 19 20 21 22 23 24 25 26 27 28 29 30 31 32 33 34 35 36 37 38 39 40 41 42 43 44 45 46 47 48 49 50

000
ASUS44 KOUN 171510
RWROK

WEATHER ROUNDUP FOR OKLAHOMA
NATIONAL WEATHER SERVICE NORMAN OK
900 AM CST TUE JAN 17 2017

NOTE: "FAIR" INDICATES FEW OR NO CLOUDS BELOW 12,000 FEET WITH NO
      SIGNIFICANT WEATHER AND/OR OBSTRUCTIONS TO VISIBILITY.

OKZ001>007-009>012-014-015-017-171600-
NORTHWEST OKLAHOMA AND THE PANHANDLE

CITY           SKY/WX    TMP DP  RH WIND       PRES   REMARKS
GAGE           SUNNY     33  30  88 NW8       30.17R WCI  26
GUYMON         SUNNY     35  32  88 W7        30.15R WCI  29
$$

OKZ016-021>023-033>039-044-045-171600-
SOUTHWEST OKLAHOMA

CITY           SKY/WX    TMP DP  RH WIND       PRES   REMARKS
LAWTON/REGL    SUNNY     35  32  88 CALM      30.19R
LAWTON/FT SILL SUNNY     37  37  99 S3        30.18R
FREDERICK      SUNNY     34  33  96 W6        30.18R WCI  29
CLINTON        SUNNY     37  30  75 NW13      30.17R WCI  29
HOBART         SUNNY     37  33  85 N9        30.18R WCI  30
ALTUS AFB      SUNNY     36  31  84 W7        30.19R WCI  30
$$

OKZ018>020-024>031-171600-
CENTRAL OKLAHOMA

CITY           SKY/WX    TMP DP  RH WIND       PRES   REMARKS
OKLAHOMA CITY  MOSUNNY   38  34  85 N9        30.15R WCI  31
OKC/WILEY POST SUNNY     39  35  86 N9        30.16S WCI  33
STILLWATER     MOSUNNY   39  34  82 NW7       30.16R WCI  34
GUTHRIE        SUNNY     38  34  85 NW6       30.17R WCI  33
$$

OKZ008-013-054>072-171600-
NORTHEAST OKLAHOMA

CITY           SKY/WX    TMP DP  RH WIND       PRES   REMARKS
TULSA          CLOUDY    40  35  83 NW7       30.16R
TULSA/JONES    CLOUDY    40  34  79 VRB6      30.17R
PONCA CITY     CLOUDY    38  32  79 NW6       30.16R WCI  33
BARTLESVILLE   CLOUDY    39  34  82 CALM      30.17R
MUSKOGEE       CLOUDY    40  36  86 NW5       30.17R
$$

OKZ032-040>043-046>053-073>077-171600-
SOUTH CENTRAL/SOUTHEAST OKLAHOMA

CITY           SKY/WX    TMP DP  RH WIND       PRES   REMARKS
ARDMORE/DWNTWN PTSUNNY   37  34  87 CALM      30.19R
MCALESTER      CLOUDY    39  34  82 N6        30.17S WCI  35
$$




USA.gov is the U.S. government's official web portal to all federal, state and local government web resources and services.